Weather History for CWKH - October, 2012

Change the Weather History Date:

Saturday, October 6, 2012

  Actual Average Record
Temperature  
Mean Temperature 58 °F -  
Max Temperature 65 °F - - ()
Min Temperature 52 °F - - ()
Degree Days  
Heating Degree Days 6    
Growing Degree Days 8 (Base 50)    
Moisture  
Dew Point 30 °F    
Average Humidity 32    
Maximum Humidity 43    
Minimum Humidity 18    
Precipitation  
Precipitation 0.00 in - - ()
Sea Level Pressure  
Sea Level Pressure 30.19 in    
Wind  
Wind Speed - ()    
Max Wind Speed -    
Max Gust Speed -    
T = Trace of Precipitation, MM = Missing Value Source: Averaged Metar Reports

Daily Weather History Graph

Daily Weather History Graph

Search for Another Location

Airport or City:

Trip Planner

Search our weather history database for the weather conditions in past years. The results will help you decide how hot, cold, wet, or windy it might be!

Date:

Astronomy

Oct. 06, 2012 Rise Set
Actual Time 7:21 AM PDT 6:41 PM PDT
Civil Twilight 6:50 AM PDT 7:12 PM PDT
Nautical Twilight 6:13 AM PDT 7:49 PM PDT
Astronomical Twilight 5:37 AM PDT 8:25 PM PDT
Moon 10:40 PM PDT (10/6) 1:42 PM PDT (10/6)
Length of Visible Light 12h 22m
Length of Day
11h 19m
Waning Gibbous, 64% of the Moon is Illuminated
Oct 6
Waning Gibbous
Oct 8
Last Quarter
Oct 15
New
Oct 21
First Quarter
Oct 29
Full

Hourly Weather History & Observations

Time (PDT) Temp. Dew Point Humidity Pressure Visibility Wind Dir Wind Speed Gust Speed Precip Events Conditions
12:00 AM 56.8 °F 26.6 °F 31% 30.22 in - North - - N/A   Unknown
1:00 AM 56.3 °F 27.1 °F 33% 30.22 in - North - - N/A   Unknown
2:00 AM 53.2 °F 28.2 °F 38% 30.23 in - North - - N/A   Unknown
3:00 AM 54.1 °F 29.1 °F 38% 30.22 in - North - - N/A   Unknown
4:00 AM 55.6 °F 28.4 °F 35% 30.21 in - North - - N/A   Unknown
5:00 AM 55 °F 28 °F 23% 30.21 in - Calm Calm - -  
5:00 AM 54.9 °F 28.2 °F 36% 30.21 in - North - - N/A   Unknown
6:00 AM 53.1 °F 29.7 °F 41% 30.23 in - North - - N/A   Unknown
7:00 AM 52.3 °F 29.1 °F 41% 30.24 in - North - - N/A   Unknown
8:00 AM 52.5 °F 30.4 °F 43% 30.23 in - North - - N/A   Unknown
9:00 AM 57.0 °F 31.5 °F 38% 30.23 in - North - - N/A   Unknown
10:00 AM 57.9 °F 34.3 °F 41% 30.23 in - North - - N/A   Unknown
11:00 AM 62 °F 30 °F 19% 30.23 in - Calm Calm - -  
11:00 AM 62.2 °F 30.0 °F 30% 30.23 in - North - - N/A   Unknown
12:00 PM 61.7 °F 29.3 °F 29% 30.23 in - North - - N/A   Unknown
1:00 PM 64.2 °F 30.7 °F 29% 30.22 in - North - - N/A   Unknown
2:00 PM 65.7 °F 30.7 °F 27% 30.19 in - North - - N/A   Unknown
3:00 PM 65.5 °F 30.7 °F 27% 30.18 in - North - - N/A   Unknown
4:00 PM 64.8 °F 28.9 °F 26% 30.16 in - North - - N/A   Unknown
5:00 PM 62 °F 29 °F 18% 30.15 in - Calm Calm - -  
5:00 PM 61.7 °F 29.5 °F 30% 30.15 in - North - - N/A   Unknown
6:00 PM 60.1 °F 24.8 °F 26% 30.14 in - North - - N/A   Unknown
7:00 PM 60.4 °F 27.0 °F 28% 30.13 in - North - - N/A   Unknown
8:00 PM 58.1 °F 31.5 °F 36% 30.13 in - North - - N/A   Unknown
9:00 PM 57.9 °F 31.3 °F 36% 30.12 in - North - - N/A   Unknown
10:00 PM 57.9 °F 33.8 °F 40% 30.11 in - North - - N/A   Unknown
11:00 PM 58 °F 34 °F 28% 30.11 in - Calm Calm - -  
11:00 PM 57.7 °F 33.6 °F 40% 30.11 in - North - - N/A   Unknown